| time (UTC) | temp F | wind direction | speed MPH | gust MPH | rain 1hr in | rain 24hr in | rain mn in | humidity % | barometer mb |
| 20260901012010 | 90 | 264 | 0.0 | 2.0 | 0.00 | 0.00 | 0.00 | 41 | 1013.2 |
| 20260901011518 | 90 | 123 | 0.0 | 1.0 | 0.00 | 0.00 | 0.00 | 41 | 1013.1 |
| 20260901011007 | 91 | 275 | 0.0 | 1.0 | 0.00 | 0.00 | 0.00 | 41 | 1013.1 |
| 20260901010506 | 91 | 275 | 0.0 | 3.0 | 0.00 | 0.00 | 0.00 | 40 | 1013.1 |
| 20260901010005 | 92 | 139 | 0.0 | 3.0 | 0.00 | 0.00 | 0.00 | 39 | 1013.0 |
| 20260901005504 | 92 | 184 | 0.0 | 3.0 | 0.00 | 0.00 | 0.00 | 38 | 1013.1 |
| 20260901005006 | 92 | 263 | 0.0 | 5.0 | 0.00 | 0.00 | 0.00 | 38 | 1013.0 |
| 20260901004515 | 93 | 222 | 0.0 | 5.0 | 0.00 | 0.00 | 0.00 | 38 | 1013.0 |
| 20260901004004 | 93 | 152 | 0.0 | 3.0 | 0.00 | 0.00 | 0.00 | 37 | 1013.0 |
| 20260901003506 | 94 | 265 | 0.0 | 3.0 | 0.00 | 0.00 | 0.00 | 37 | 1012.9 |
| 20260901003016 | 94 | 317 | 0.0 | 3.0 | 0.00 | 0.00 | 0.00 | 37 | 1012.9 |
| 20260901002508 | 94 | 167 | 0.0 | 3.0 | 0.00 | 0.00 | 0.00 | 36 | 1012.9 |
| 20260901002008 | 95 | 272 | 0.0 | 3.0 | 0.00 | 0.00 | 0.00 | 35 | 1012.9 |
| 20260901001518 | 95 | 111 | 0.0 | 1.0 | 0.00 | 0.00 | 0.00 | 36 | 1012.9 |
| 20260901001007 | 96 | 211 | 0.0 | 2.0 | 0.00 | 0.00 | 0.00 | 34 | 1012.8 |
| 20260901000507 | 96 | 250 | 0.0 | 3.0 | 0.00 | 0.00 | 0.00 | 34 | 1012.8 |
| 20260901000016 | 96 | 250 | 1.0 | 4.0 | 0.00 | 0.00 | 0.00 | 33 | 1012.9 |
| 20260831235508 | 97 | 281 | 1.0 | 9.0 | 0.00 | 0.00 | 0.00 | 33 | 1012.9 |
| 20260831235007 | 97 | 281 | 1.0 | 9.0 | 0.00 | 0.00 | 0.00 | 32 | 1012.9 |
| 20260831234508 | 98 | 264 | 1.0 | 6.0 | 0.00 | 0.00 | 0.00 | 32 | 1012.9 |
| 20260831234003 | 98 | 245 | 1.0 | 8.0 | 0.00 | 0.00 | 0.00 | 31 | 1012.9 |
| 20260831233503 | 99 | 289 | 2.0 | 8.0 | 0.00 | 0.00 | 0.00 | 31 | 1012.9 |
| 20260831233012 | 99 | 282 | 1.0 | 9.0 | 0.00 | 0.00 | 0.00 | 30 | 1012.9 |
| 20260831232508 | 99 | 269 | 1.0 | 10.0 | 0.00 | 0.00 | 0.00 | 30 | 1012.8 |
| 20260831232007 | 99 | 256 | 2.0 | 10.0 | 0.00 | 0.00 | 0.00 | 29 | 1012.9 |
| 20260831231520 | 100 | 165 | 1.0 | 8.0 | 0.00 | 0.00 | 0.00 | 29 | 1012.9 |
| 20260831231010 | 100 | 238 | 1.0 | 7.0 | 0.00 | 0.00 | 0.00 | 30 | 1012.9 |
| 20260831230508 | 100 | 212 | 1.0 | 8.0 | 0.00 | 0.00 | 0.00 | 29 | 1012.9 |
| 20260831230027 | 100 | 105 | 2.0 | 10.0 | 0.00 | 0.00 | 0.00 | 29 | 1012.9 |
| 20260831225506 | 100 | 252 | 1.0 | 10.0 | 0.00 | 0.00 | 0.00 | 29 | 1012.9 |
| 20260831225012 | 100 | 132 | 2.0 | 8.0 | 0.00 | 0.00 | 0.00 | 28 | 1012.9 |
| 20260831224517 | 100 | 112 | 0.0 | 8.0 | 0.00 | 0.00 | 0.00 | 29 | 1013.0 |
| 20260831224009 | 100 | 195 | 2.0 | 7.0 | 0.00 | 0.00 | 0.00 | 27 | 1012.9 |
| 20260831223510 | 100 | 199 | 2.0 | 10.0 | 0.00 | 0.00 | 0.00 | 28 | 1012.9 |
| 20260831223009 | 100 | 217 | 2.0 | 10.0 | 0.00 | 0.00 | 0.00 | 27 | 1013.0 |
| 20260831222506 | 101 | 273 | 2.0 | 9.0 | 0.00 | 0.00 | 0.00 | 28 | 1013.0 |
| 20260831222006 | 101 | 202 | 2.0 | 9.0 | 0.00 | 0.00 | 0.00 | 28 | 1013.1 |
| 20260831221517 | 101 | 243 | 3.0 | 9.0 | 0.00 | 0.00 | 0.00 | 27 | 1013.1 |
| 20260831221008 | 101 | 300 | 3.0 | 8.0 | 0.00 | 0.00 | 0.00 | 28 | 1013.2 |
| 20260831220508 | 102 | 150 | 2.0 | 10.0 | 0.00 | 0.00 | 0.00 | 27 | 1013.2 |
| 20260831220023 | 102 | 243 | 3.0 | 10.0 | 0.00 | 0.00 | 0.00 | 28 | 1013.2 |
| 20260831215512 | 102 | 227 | 3.0 | 10.0 | 0.00 | 0.00 | 0.00 | 28 | 1013.2 |
| 20260831215010 | 101 | 236 | 1.0 | 11.0 | 0.00 | 0.00 | 0.00 | 29 | 1013.2 |
| 20260831214521 | 101 | 180 | 2.0 | 12.0 | 0.00 | 0.00 | 0.00 | 29 | 1013.3 |
| 20260831214010 | 102 | 273 | 5.0 | 12.0 | 0.00 | 0.00 | 0.00 | 26 | 1013.3 |
| 20260831213508 | 102 | 273 | 3.0 | 10.0 | 0.00 | 0.00 | 0.00 | 27 | 1013.3 |
| 20260831213029 | 102 | 248 | 3.0 | 10.0 | 0.00 | 0.00 | 0.00 | 27 | 1013.3 |
| 20260831212513 | 102 | 213 | 2.0 | 8.0 | 0.00 | 0.00 | 0.00 | 26 | 1013.4 |
| 20260831212010 | 103 | 240 | 2.0 | 10.0 | 0.00 | 0.00 | 0.00 | 25 | 1013.5 |
| 20260831211525 | 102 | 167 | 1.0 | 10.0 | 0.00 | 0.00 | 0.00 | 26 | 1013.4 |
| 20260831211009 | 102 | 200 | 2.0 | 8.0 | 0.00 | 0.00 | 0.00 | 26 | 1013.5 |
| 20260831210510 | 102 | 24 | 2.0 | 10.0 | 0.00 | 0.00 | 0.00 | 27 | 1013.6 |
| 20260831210027 | 102 | 269 | 1.0 | 10.0 | 0.00 | 0.00 | 0.00 | 27 | 1013.5 |
| 20260831205512 | 102 | 133 | 3.0 | 11.0 | 0.00 | 0.00 | 0.00 | 27 | 1013.6 |
| 20260831205010 | 102 | 269 | 5.0 | 12.0 | 0.00 | 0.00 | 0.00 | 27 | 1013.6 |
| 20260831204527 | 102 | 306 | 3.0 | 12.0 | 0.00 | 0.00 | 0.00 | 27 | 1013.6 |
| 20260831204011 | 102 | 309 | 3.0 | 12.0 | 0.00 | 0.00 | 0.00 | 28 | 1013.7 |
| 20260831203510 | 102 | 217 | 3.0 | 13.0 | 0.00 | 0.00 | 0.00 | 28 | 1013.7 |
| 20260831203022 | 102 | 250 | 3.0 | 13.0 | 0.00 | 0.00 | 0.00 | 28 | 1013.7 |
| 20260831202514 | 102 | 294 | 3.0 | 11.0 | 0.00 | 0.00 | 0.00 | 27 | 1013.8 |
| 20260831202013 | 102 | 300 | 4.0 | 11.0 | 0.00 | 0.00 | 0.00 | 28 | 1013.8 |
| 20260831201528 | 102 | 257 | 5.0 | 11.0 | 0.00 | 0.00 | 0.00 | 28 | 1013.7 |
| 20260831201012 | 102 | 195 | 3.0 | 11.0 | 0.00 | 0.00 | 0.00 | 29 | 1013.9 |
| 20260831200511 | 102 | 254 | 3.0 | 9.0 | 0.00 | 0.00 | 0.00 | 28 | 1014.0 |
| 20260831200031 | 102 | 198 | 3.0 | 10.0 | 0.00 | 0.00 | 0.00 | 27 | 1014.0 |
| 20260831195511 | 102 | 192 | 3.0 | 10.0 | 0.00 | 0.00 | 0.00 | 30 | 1014.0 |
| 20260831195014 | 102 | 286 | 2.0 | 8.0 | 0.00 | 0.00 | 0.00 | 29 | 1014.2 |
| 20260831194548 | 102 | 271 | 3.0 | 9.0 | 0.00 | 0.00 | 0.00 | 29 | 1014.1 |
| 20260831194011 | 102 | 229 | 2.0 | 9.0 | 0.00 | 0.00 | 0.00 | 29 | 1014.1 |
| 20260831193515 | 102 | 270 | 4.0 | 10.0 | 0.00 | 0.00 | 0.00 | 29 | 1014.2 |
| 20260831193028 | 102 | 280 | 3.0 | 10.0 | 0.00 | 0.00 | 0.00 | 29 | 1014.2 |
| 20260831192514 | 101 | 146 | 2.0 | 10.0 | 0.00 | 0.00 | 0.00 | 31 | 1014.3 |
| 20260831192011 | 101 | 225 | 1.0 | 12.0 | 0.00 | 0.00 | 0.00 | 32 | 1014.4 |
| 20260831191525 | 101 | 261 | 4.0 | 12.0 | 0.00 | 0.00 | 0.00 | 31 | 1014.3 |
| 20260831191014 | 101 | 260 | 4.0 | 12.0 | 0.00 | 0.00 | 0.00 | 31 | 1014.3 |
| 20260831190512 | 101 | 225 | 3.0 | 12.0 | 0.00 | 0.00 | 0.00 | 31 | 1014.4 |
| 20260831190010 | 100 | 74 | 3.0 | 12.0 | 0.00 | 0.00 | 0.00 | 32 | 1014.4 |
| 20260831185504 | 101 | 245 | 3.0 | 12.0 | 0.00 | 0.00 | 0.00 | 33 | 1014.5 |
| 20260831185007 | 101 | 254 | 5.0 | 12.0 | 0.00 | 0.00 | 0.00 | 32 | 1014.5 |
| 20260831184515 | 100 | 177 | 3.0 | 12.0 | 0.00 | 0.00 | 0.00 | 34 | 1014.6 |
| 20260831184006 | 100 | 108 | 4.0 | 10.0 | 0.00 | 0.00 | 0.00 | 33 | 1014.5 |
| 20260831183511 | 100 | 257 | 3.0 | 10.0 | 0.00 | 0.00 | 0.00 | 33 | 1014.6 |
| 20260831183025 | 100 | 236 | 1.0 | 10.0 | 0.00 | 0.00 | 0.00 | 35 | 1014.7 |
| 20260831182510 | 99 | 280 | 3.0 | 10.0 | 0.00 | 0.00 | 0.00 | 36 | 1014.7 |
| 20260831182013 | 99 | 244 | 3.0 | 14.0 | 0.00 | 0.00 | 0.00 | 34 | 1014.7 |
| 20260831181531 | 99 | 304 | 2.0 | 14.0 | 0.00 | 0.00 | 0.00 | 35 | 1014.9 |
| 20260831181011 | 98 | 246 | 3.0 | 12.0 | 0.00 | 0.00 | 0.00 | 36 | 1014.9 |
| 20260831180515 | 98 | 229 | 3.0 | 10.0 | 0.00 | 0.00 | 0.00 | 37 | 1014.9 |
| 20260831180029 | 98 | 263 | 5.0 | 10.0 | 0.00 | 0.00 | 0.00 | 36 | 1015.0 |
| 20260831175503 | 98 | 276 | 2.0 | 10.0 | 0.00 | 0.00 | 0.00 | 37 | 1015.0 |
| 20260831175003 | 98 | 219 | 3.0 | 8.0 | 0.00 | 0.00 | 0.00 | 38 | 1015.1 |
| 20260831174521 | 97 | 84 | 1.0 | 9.0 | 0.00 | 0.00 | 0.00 | 39 | 1015.2 |
| 20260831174007 | 97 | 277 | 2.0 | 9.0 | 0.00 | 0.00 | 0.00 | 39 | 1015.3 |
| 20260831173507 | 97 | 285 | 4.0 | 11.0 | 0.00 | 0.00 | 0.00 | 38 | 1015.4 |
| 20260831173016 | 96 | 192 | 2.0 | 11.0 | 0.00 | 0.00 | 0.00 | 40 | 1015.5 |
| 20260831172510 | 95 | 229 | 2.0 | 10.0 | 0.00 | 0.00 | 0.00 | 40 | 1015.6 |
| 20260831172010 | 95 | 269 | 3.0 | 8.0 | 0.00 | 0.00 | 0.00 | 40 | 1015.6 |
| 20260831171523 | 95 | 251 | 1.0 | 8.0 | 0.00 | 0.00 | 0.00 | 41 | 1015.6 |
| 20260831171016 | 95 | 280 | 3.0 | 8.0 | 0.00 | 0.00 | 0.00 | 41 | 1015.7 |
| 20260831170512 | 94 | 211 | 1.0 | 9.0 | 0.00 | 0.00 | 0.00 | 42 | 1015.8 |
| 20260831170034 | 94 | 260 | 3.0 | 9.0 | 0.00 | 0.00 | 0.00 | 40 | 1015.8 |
| 20260831165511 | 94 | 269 | 1.0 | 9.0 | 0.00 | 0.00 | 0.00 | 42 | 1015.9 |
| 20260831165013 | 94 | 283 | 3.0 | 9.0 | 0.00 | 0.00 | 0.00 | 43 | 1015.8 |
| 20260831164529 | 94 | 333 | 2.0 | 9.0 | 0.00 | 0.00 | 0.00 | 42 | 1015.8 |
| 20260831164003 | 93 | 274 | 2.0 | 9.0 | 0.00 | 0.00 | 0.00 | 42 | 1015.9 |
| 20260831163504 | 93 | 226 | 1.0 | 7.0 | 0.00 | 0.00 | 0.00 | 43 | 1015.9 |
| 20260831163016 | 93 | 270 | 2.0 | 7.0 | 0.00 | 0.00 | 0.00 | 45 | 1016.0 |
| 20260831162508 | 93 | 344 | 1.0 | 7.0 | 0.00 | 0.00 | 0.00 | 44 | 1016.0 |
| 20260831162005 | 92 | 262 | 1.0 | 7.0 | 0.00 | 0.00 | 0.00 | 45 | 1016.0 |
| 20260831161519 | 91 | 294 | 1.0 | 12.0 | 0.00 | 0.00 | 0.00 | 46 | 1016.0 |
| 20260831161014 | 92 | 252 | 3.0 | 12.0 | 0.00 | 0.00 | 0.00 | 44 | 1016.1 |
| 20260831160511 | 91 | 249 | 1.0 | 8.0 | 0.00 | 0.00 | 0.00 | 45 | 1016.0 |
| 20260831160025 | 91 | 165 | 2.0 | 7.0 | 0.00 | 0.00 | 0.00 | 45 | 1016.1 |
| 20260831155512 | 91 | 248 | 2.0 | 7.0 | 0.00 | 0.00 | 0.00 | 45 | 1016.0 |
| 20260831155014 | 90 | 248 | 1.0 | 7.0 | 0.00 | 0.00 | 0.00 | 45 | 1016.1 |
| 20260831154626 | 90 | 225 | 1.0 | 8.0 | 0.00 | 0.00 | 0.00 | 46 | 1016.1 |
| 20260831154013 | 90 | 232 | 2.0 | 8.0 | 0.00 | 0.00 | 0.00 | 45 | 1016.1 |
| 20260831153516 | 90 | 290 | 2.0 | 8.0 | 0.00 | 0.00 | 0.00 | 47 | 1016.0 |
| 20260831153031 | 89 | 238 | 0.0 | 8.0 | 0.00 | 0.00 | 0.00 | 47 | 1016.0 |
| 20260831152513 | 89 | 248 | 3.0 | 8.0 | 0.00 | 0.00 | 0.00 | 47 | 1015.9 |
| 20260831152008 | 89 | 210 | 3.0 | 9.0 | 0.00 | 0.00 | 0.00 | 47 | 1016.0 |
| 20260831151516 | 89 | 254 | 3.0 | 9.0 | 0.00 | 0.00 | 0.00 | 48 | 1016.0 |
| 20260831151009 | 88 | 210 | 0.0 | 6.0 | 0.00 | 0.00 | 0.00 | 49 | 1016.0 |
| 20260831150507 | 88 | 261 | 2.0 | 6.0 | 0.00 | 0.00 | 0.00 | 48 | 1016.0 |
| 20260831150022 | 87 | 256 | 1.0 | 7.0 | 0.00 | 0.00 | 0.00 | 49 | 1016.0 |
| 20260831145511 | 87 | 269 | 1.0 | 7.0 | 0.00 | 0.00 | 0.00 | 52 | 1016.1 |
| 20260831145012 | 87 | 277 | 0.0 | 10.0 | 0.00 | 0.00 | 0.00 | 51 | 1016.0 |
| 20260831144533 | 86 | 84 | 2.0 | 10.0 | 0.00 | 0.00 | 0.00 | 50 | 1016.0 |
| 20260831144012 | 86 | 245 | 2.0 | 8.0 | 0.00 | 0.00 | 0.00 | 50 | 1016.0 |
| 20260831143514 | 85 | 231 | 2.0 | 8.0 | 0.00 | 0.00 | 0.00 | 52 | 1016.1 |
| 20260831143050 | 85 | 246 | 1.0 | 6.0 | 0.00 | 0.00 | 0.00 | 52 | 1016.1 |
| 20260831142514 | 84 | 276 | 1.0 | 6.0 | 0.00 | 0.00 | 0.00 | 54 | 1016.1 |
| 20260831142019 | 84 | 175 | 0.0 | 4.0 | 0.00 | 0.00 | 0.00 | 53 | 1016.2 |
| 20260831141545 | 83 | 261 | 1.0 | 4.0 | 0.00 | 0.00 | 0.00 | 54 | 1016.1 |
| 20260831141015 | 83 | 279 | 0.0 | 4.0 | 0.00 | 0.00 | 0.00 | 55 | 1016.2 |
| 20260831140507 | 82 | 311 | 1.0 | 4.0 | 0.00 | 0.00 | 0.00 | 56 | 1016.1 |
| 20260831140036 | 82 | 241 | 0.0 | 6.0 | 0.00 | 0.00 | 0.00 | 56 | 1016.1 |
| 20260831135510 | 81 | 246 | 2.0 | 7.0 | 0.00 | 0.00 | 0.00 | 56 | 1016.0 |
| 20260831135008 | 80 | 194 | 1.0 | 7.0 | 0.00 | 0.00 | 0.00 | 57 | 1016.1 |
| 20260831134534 | 80 | 288 | 1.0 | 7.0 | 0.00 | 0.00 | 0.00 | 59 | 1016.0 |
| 20260831134010 | 79 | 174 | 0.0 | 4.0 | 0.00 | 0.00 | 0.00 | 59 | 1016.0 |
| 20260831133513 | 79 | 273 | 1.0 | 4.0 | 0.00 | 0.00 | 0.00 | 60 | 1016.0 |
| 20260831133033 | 78 | 178 | 1.0 | 3.0 | 0.00 | 0.00 | 0.00 | 60 | 1015.8 |
| 20260831132516 | 78 | 265 | 0.0 | 4.0 | 0.00 | 0.00 | 0.00 | 62 | 1015.8 |
| 20260831132015 | 77 | 281 | 1.0 | 4.0 | 0.00 | 0.00 | 0.00 | 62 | 1015.7 |
| 20260831131531 | 77 | 153 | 0.0 | 5.0 | 0.00 | 0.00 | 0.00 | 63 | 1015.8 |
| 20260831131019 | 76 | 144 | 1.0 | 4.0 | 0.00 | 0.00 | 0.00 | 63 | 1015.8 |
| 20260831130515 | 76 | 236 | 0.0 | 1.0 | 0.00 | 0.00 | 0.00 | 64 | 1015.7 |
| 20260831130017 | 76 | 236 | 0.0 | 3.0 | 0.00 | 0.00 | 0.00 | 64 | 1015.8 |
| 20260831125511 | 76 | 236 | 0.0 | 3.0 | 0.00 | 0.00 | 0.00 | 64 | 1015.7 |
| 20260831125010 | 75 | 253 | 0.0 | 2.0 | 0.00 | 0.00 | 0.00 | 64 | 1015.6 |
| 20260831124524 | 75 | 253 | 0.0 | 2.0 | 0.00 | 0.00 | 0.00 | 64 | 1015.6 |
| 20260831124013 | 75 | 253 | 0.0 | 2.0 | 0.00 | 0.00 | 0.00 | 65 | 1015.5 |
| 20260831123502 | 75 | 192 | 0.0 | 2.0 | 0.00 | 0.00 | 0.00 | 66 | 1015.5 |
| 20260831123008 | 74 | 252 | 0.0 | 0.0 | 0.00 | 0.00 | 0.00 | 65 | 1015.6 |
| 20260831122504 | 74 | 252 | 0.0 | 0.0 | 0.00 | 0.00 | 0.00 | 65 | 1015.5 |
| 20260831122001 | 74 | 252 | 0.0 | 0.0 | 0.00 | 0.00 | 0.00 | 65 | 1015.5 |
| 20260831121510 | 75 | 252 | 0.0 | 0.0 | 0.00 | 0.00 | 0.00 | 65 | 1015.5 |
| 20260831121003 | 75 | 252 | 0.0 | 1.0 | 0.00 | 0.00 | 0.00 | 65 | 1015.5 |
| 20260831120505 | 75 | 252 | 0.0 | 1.0 | 0.00 | 0.00 | 0.00 | 64 | 1015.5 |
| 20260831120010 | 75 | 252 | 0.0 | 2.0 | 0.00 | 0.00 | 0.00 | 64 | 1015.5 |
| 20260831115505 | 75 | 252 | 0.0 | 2.0 | 0.00 | 0.00 | 0.00 | 63 | 1015.4 |
| 20260831115010 | 75 | 252 | 0.0 | 1.0 | 0.00 | 0.00 | 0.00 | 63 | 1015.3 |
| 20260831114520 | 75 | 252 | 0.0 | 1.0 | 0.00 | 0.00 | 0.00 | 63 | 1015.2 |
| 20260831114008 | 75 | 252 | 0.0 | 0.0 | 0.00 | 0.00 | 0.00 | 63 | 1015.3 |
| 20260831113512 | 76 | 252 | 0.0 | 0.0 | 0.00 | 0.00 | 0.00 | 62 | 1015.3 |
| 20260831113026 | 76 | 252 | 0.0 | 0.0 | 0.00 | 0.00 | 0.00 | 61 | 1015.2 |
| 20260831112514 | 76 | 252 | 0.0 | 0.0 | 0.00 | 0.00 | 0.00 | 61 | 1015.2 |
| 20260831112002 | 76 | 252 | 0.0 | 0.0 | 0.00 | 0.00 | 0.00 | 61 | 1015.1 |
| 20260831111505 | 77 | 252 | 0.0 | 2.0 | 0.00 | 0.00 | 0.00 | 60 | 1015.0 |
| 20260831111004 | 77 | 252 | 0.0 | 3.0 | 0.00 | 0.00 | 0.00 | 60 | 1015.0 |
| 20260831110504 | 77 | 252 | 0.0 | 3.0 | 0.00 | 0.00 | 0.00 | 60 | 1015.0 |
| 20260831110014 | 77 | 235 | 0.0 | 2.0 | 0.00 | 0.00 | 0.00 | 60 | 1014.9 |
| 20260831105503 | 77 | 264 | 0.0 | 2.0 | 0.00 | 0.00 | 0.00 | 59 | 1014.8 |
| 20260831105007 | 77 | 264 | 0.0 | 3.0 | 0.00 | 0.00 | 0.00 | 60 | 1014.9 |
| 20260831104518 | 77 | 264 | 0.0 | 3.0 | 0.00 | 0.00 | 0.00 | 60 | 1014.7 |
| 20260831104005 | 78 | 223 | 0.0 | 0.0 | 0.00 | 0.00 | 0.00 | 59 | 1014.7 |
| 20260831103510 | 78 | 178 | 0.0 | 4.0 | 0.00 | 0.00 | 0.00 | 59 | 1014.7 |
| 20260831103019 | 78 | 238 | 0.0 | 4.0 | 0.00 | 0.00 | 0.00 | 58 | 1014.7 |
| 20260831102509 | 78 | 241 | 0.0 | 3.0 | 0.00 | 0.00 | 0.00 | 58 | 1014.5 |
| 20260831102011 | 78 | 270 | 0.0 | 4.0 | 0.00 | 0.00 | 0.00 | 58 | 1014.5 |
| 20260831101531 | 78 | 256 | 0.0 | 4.0 | 0.00 | 0.00 | 0.00 | 58 | 1014.4 |
| 20260831101012 | 78 | 200 | 0.0 | 6.0 | 0.00 | 0.00 | 0.00 | 58 | 1014.5 |
| 20260831100503 | 79 | 257 | 1.0 | 6.0 | 0.00 | 0.00 | 0.00 | 57 | 1014.4 |
| 20260831100006 | 79 | 210 | 0.0 | 4.0 | 0.00 | 0.00 | 0.00 | 57 | 1014.4 |
| 20260831095505 | 79 | 266 | 0.0 | 4.0 | 0.00 | 0.00 | 0.00 | 57 | 1014.4 |
| 20260831095006 | 79 | 278 | 0.0 | 3.0 | 0.00 | 0.00 | 0.00 | 57 | 1014.2 |
| 20260831094508 | 79 | 278 | 0.0 | 3.0 | 0.00 | 0.00 | 0.00 | 56 | 1014.2 |
| 20260831094006 | 80 | 255 | 0.0 | 5.0 | 0.00 | 0.00 | 0.00 | 56 | 1014.2 |
| 20260831093507 | 80 | 252 | 0.0 | 5.0 | 0.00 | 0.00 | 0.00 | 56 | 1014.1 |
| 20260831093016 | 80 | 272 | 1.0 | 4.0 | 0.00 | 0.00 | 0.00 | 55 | 1014.0 |
| 20260831092508 | 80 | 279 | 0.0 | 2.0 | 0.00 | 0.00 | 0.00 | 55 | 1013.9 |
| 20260831092012 | 80 | 279 | 0.0 | 2.0 | 0.00 | 0.00 | 0.00 | 54 | 1013.9 |
| 20260831091524 | 81 | 279 | 0.0 | 2.0 | 0.00 | 0.00 | 0.00 | 54 | 1013.8 |
| 20260831091013 | 81 | 279 | 0.0 | 4.0 | 0.00 | 0.00 | 0.00 | 54 | 1013.9 |
| 20260831090513 | 81 | 260 | 0.0 | 4.0 | 0.00 | 0.00 | 0.00 | 54 | 1013.9 |
| 20260831090028 | 81 | 250 | 0.0 | 4.0 | 0.00 | 0.00 | 0.00 | 53 | 1013.9 |
| 20260831085513 | 82 | 276 | 1.0 | 4.0 | 0.00 | 0.00 | 0.00 | 53 | 1013.8 |
| 20260831085006 | 82 | 113 | 1.0 | 4.0 | 0.00 | 0.00 | 0.00 | 52 | 1013.7 |
| 20260831084507 | 82 | 266 | 1.0 | 7.0 | 0.00 | 0.00 | 0.00 | 52 | 1013.7 |
| 20260831084006 | 82 | 266 | 0.0 | 10.0 | 0.00 | 0.00 | 0.00 | 52 | 1013.6 |
| 20260831083505 | 82 | 205 | 1.0 | 10.0 | 0.00 | 0.00 | 0.00 | 52 | 1013.5 |
| 20260831083012 | 82 | 277 | 1.0 | 4.0 | 0.00 | 0.00 | 0.00 | 52 | 1013.5 |
| 20260831082507 | 82 | 141 | 0.0 | 4.0 | 0.00 | 0.00 | 0.00 | 52 | 1013.5 |
| 20260831082008 | 82 | 280 | 1.0 | 4.0 | 0.00 | 0.00 | 0.00 | 52 | 1013.5 |
| 20260831081517 | 82 | 249 | 1.0 | 4.0 | 0.00 | 0.00 | 0.00 | 52 | 1013.5 |
| 20260831081009 | 82 | 261 | 1.0 | 4.0 | 0.00 | 0.00 | 0.00 | 51 | 1013.4 |
| 20260831080510 | 83 | 174 | 0.0 | 4.0 | 0.00 | 0.00 | 0.00 | 51 | 1013.4 |
| 20260831080026 | 83 | 277 | 1.0 | 4.0 | 0.00 | 0.00 | 0.00 | 51 | 1013.4 |
| 20260831075513 | 83 | 115 | 2.0 | 4.0 | 0.00 | 0.00 | 0.00 | 51 | 1013.4 |
| 20260831075013 | 83 | 271 | 1.0 | 4.0 | 0.00 | 0.00 | 0.00 | 51 | 1013.4 |
| 20260831074529 | 83 | 304 | 0.0 | 7.0 | 0.00 | 0.00 | 0.00 | 51 | 1013.5 |
| 20260831074016 | 83 | 284 | 2.0 | 7.0 | 0.00 | 0.00 | 0.00 | 50 | 1013.4 |
| 20260831073504 | 83 | 265 | 1.0 | 5.0 | 0.00 | 0.00 | 0.00 | 51 | 1013.5 |
| 20260831073021 | 83 | 253 | 0.0 | 7.0 | 0.00 | 0.00 | 0.00 | 51 | 1013.5 |
| 20260831072503 | 83 | 268 | 1.0 | 7.0 | 0.00 | 0.00 | 0.00 | 50 | 1013.5 |
| 20260831072006 | 83 | 271 | 2.0 | 6.0 | 0.00 | 0.00 | 0.00 | 50 | 1013.5 |
| 20260831071515 | 83 | 273 | 1.0 | 7.0 | 0.00 | 0.00 | 0.00 | 50 | 1013.6 |
| 20260831071007 | 83 | 261 | 1.0 | 7.0 | 0.00 | 0.00 | 0.00 | 51 | 1013.6 |
| 20260831070508 | 83 | 208 | 1.0 | 7.0 | 0.00 | 0.00 | 0.00 | 50 | 1013.7 |
| 20260831070029 | 83 | 300 | 0.0 | 8.0 | 0.00 | 0.00 | 0.00 | 50 | 1013.7 |
| 20260831065510 | 83 | 229 | 1.0 | 7.0 | 0.00 | 0.00 | 0.00 | 50 | 1013.8 |
| 20260831065013 | 84 | 136 | 1.0 | 7.0 | 0.00 | 0.00 | 0.00 | 50 | 1013.8 |
| 20260831064529 | 84 | 259 | 1.0 | 7.0 | 0.00 | 0.00 | 0.00 | 49 | 1013.8 |
| 20260831064013 | 84 | 262 | 1.0 | 6.0 | 0.00 | 0.00 | 0.00 | 49 | 1013.7 |
| 20260831063514 | 84 | 264 | 2.0 | 8.0 | 0.00 | 0.00 | 0.00 | 49 | 1013.6 |
| 20260831063032 | 84 | 273 | 1.0 | 9.0 | 0.00 | 0.00 | 0.00 | 49 | 1013.5 |
| 20260831062516 | 84 | 259 | 2.0 | 9.0 | 0.00 | 0.00 | 0.00 | 49 | 1013.4 |
| 20260831062004 | 84 | 253 | 2.0 | 9.0 | 0.00 | 0.00 | 0.00 | 49 | 1013.3 |
| 20260831061512 | 84 | 236 | 0.0 | 7.0 | 0.00 | 0.00 | 0.00 | 50 | 1013.2 |
| 20260831061012 | 84 | 174 | 1.0 | 7.0 | 0.00 | 0.00 | 0.00 | 50 | 1013.2 |
| 20260831060511 | 84 | 86 | 1.0 | 7.0 | 0.00 | 0.00 | 0.00 | 50 | 1013.2 |
| 20260831060016 | 83 | 289 | 2.0 | 7.0 | 0.00 | 0.00 | 0.00 | 50 | 1013.1 |
| 20260831055509 | 83 | 263 | 1.0 | 9.0 | 0.00 | 0.00 | 0.00 | 51 | 1013.0 |
| 20260831055009 | 83 | 242 | 0.0 | 9.0 | 0.00 | 0.00 | 0.00 | 50 | 1012.8 |
| 20260831054528 | 83 | 157 | 1.0 | 7.0 | 0.00 | 0.00 | 0.00 | 50 | 1012.7 |
| 20260831054015 | 83 | 263 | 1.0 | 4.0 | 0.00 | 0.00 | 0.00 | 51 | 1012.6 |
| 20260831053514 | 83 | 297 | 1.0 | 4.0 | 0.00 | 0.00 | 0.00 | 50 | 1012.5 |
| 20260831053032 | 83 | 295 | 2.0 | 4.0 | 0.00 | 0.00 | 0.00 | 50 | 1012.4 |
| 20260831052515 | 83 | 275 | 1.0 | 4.0 | 0.00 | 0.00 | 0.00 | 50 | 1012.4 |
| 20260831052015 | 83 | 187 | 1.0 | 7.0 | 0.00 | 0.00 | 0.00 | 50 | 1012.4 |
| 20260831051535 | 83 | 273 | 1.0 | 7.0 | 0.00 | 0.00 | 0.00 | 50 | 1012.4 |
| 20260831051018 | 84 | 214 | 1.0 | 4.0 | 0.00 | 0.00 | 0.00 | 49 | 1012.3 |
| 20260831050506 | 84 | 299 | 1.0 | 4.0 | 0.00 | 0.00 | 0.00 | 49 | 1012.3 |
| 20260831050014 | 84 | 216 | 1.0 | 4.0 | 0.00 | 0.00 | 0.00 | 49 | 1012.3 |
| 20260831045508 | 84 | 229 | 2.0 | 4.0 | 0.00 | 0.00 | 0.00 | 48 | 1012.2 |
| 20260831045009 | 84 | 287 | 1.0 | 6.0 | 0.00 | 0.00 | 0.00 | 49 | 1012.2 |
| 20260831044521 | 84 | 250 | 1.0 | 8.0 | 0.00 | 0.00 | 0.00 | 48 | 1012.2 |
| 20260831044009 | 84 | 286 | 1.0 | 8.0 | 0.00 | 0.00 | 0.00 | 48 | 1012.1 |
| 20260831043510 | 84 | 188 | 2.0 | 5.0 | 0.00 | 0.00 | 0.00 | 48 | 1012.1 |
| 20260831043026 | 84 | 290 | 1.0 | 4.0 | 0.00 | 0.00 | 0.00 | 48 | 1012.2 |
| 20260831042513 | 85 | 274 | 0.0 | 6.0 | 0.00 | 0.00 | 0.00 | 48 | 1012.3 |
| 20260831042014 | 85 | 261 | 1.0 | 6.0 | 0.00 | 0.00 | 0.00 | 48 | 1012.3 |
| 20260831041531 | 85 | 283 | 0.0 | 4.0 | 0.00 | 0.00 | 0.00 | 47 | 1012.3 |
| 20260831041015 | 85 | 313 | 1.0 | 4.0 | 0.00 | 0.00 | 0.00 | 47 | 1012.3 |
| 20260831040518 | 85 | 256 | 1.0 | 4.0 | 0.00 | 0.00 | 0.00 | 47 | 1012.3 |
| 20260831040035 | 85 | 217 | 0.0 | 4.0 | 0.00 | 0.00 | 0.00 | 47 | 1012.4 |
| 20260831035517 | 86 | 184 | 0.0 | 4.0 | 0.00 | 0.00 | 0.00 | 47 | 1012.3 |
| 20260831035016 | 86 | 196 | 0.0 | 3.0 | 0.00 | 0.00 | 0.00 | 46 | 1012.3 |
| 20260831034516 | 86 | 169 | 1.0 | 4.0 | 0.00 | 0.00 | 0.00 | 46 | 1012.3 |
| 20260831034008 | 86 | 273 | 0.0 | 4.0 | 0.00 | 0.00 | 0.00 | 45 | 1012.3 |
| 20260831033511 | 87 | 265 | 1.0 | 3.0 | 0.00 | 0.00 | 0.00 | 45 | 1012.3 |
| 20260831033032 | 87 | 194 | 1.0 | 5.0 | 0.00 | 0.00 | 0.00 | 45 | 1012.2 |
| 20260831032512 | 87 | 140 | 0.0 | 5.0 | 0.00 | 0.00 | 0.00 | 45 | 1012.2 |
| 20260831032014 | 87 | 292 | 0.0 | 4.0 | 0.00 | 0.00 | 0.00 | 45 | 1012.2 |
| 20260831031537 | 87 | 237 | 0.0 | 7.0 | 0.00 | 0.00 | 0.00 | 45 | 1012.2 |
| 20260831031014 | 88 | 267 | 0.0 | 7.0 | 0.00 | 0.00 | 0.00 | 45 | 1012.1 |
| 20260831030505 | 88 | 275 | 1.0 | 3.0 | 0.00 | 0.00 | 0.00 | 44 | 1012.1 |
| 20260831030008 | 88 | 179 | 0.0 | 4.0 | 0.00 | 0.00 | 0.00 | 44 | 1012.1 |
| 20260831025503 | 88 | 285 | 0.0 | 4.0 | 0.00 | 0.00 | 0.00 | 44 | 1012.1 |
| 20260831025010 | 88 | 141 | 1.0 | 4.0 | 0.00 | 0.00 | 0.00 | 44 | 1012.1 |
| 20260831024511 | 88 | 260 | 0.0 | 6.0 | 0.00 | 0.00 | 0.00 | 44 | 1012.0 |
| 20260831024007 | 88 | 316 | 1.0 | 6.0 | 0.00 | 0.00 | 0.00 | 44 | 1011.9 |
| 20260831023508 | 88 | 277 | 1.0 | 4.0 | 0.00 | 0.00 | 0.00 | 44 | 1011.9 |
| 20260831023020 | 88 | 290 | 2.0 | 4.0 | 0.00 | 0.00 | 0.00 | 44 | 1011.8 |
| 20260831022511 | 88 | 257 | 1.0 | 2.0 | 0.00 | 0.00 | 0.00 | 44 | 1011.7 |
| 20260831022013 | 88 | 257 | 0.0 | 2.0 | 0.00 | 0.00 | 0.00 | 44 | 1011.7 |
| 20260831021504 | 88 | 257 | 0.0 | 2.0 | 0.00 | 0.00 | 0.00 | 43 | 1011.7 |
| 20260831021004 | 89 | 217 | 0.0 | 2.0 | 0.00 | 0.00 | 0.00 | 42 | 1011.6 |
| 20260831020503 | 89 | 263 | 0.0 | 2.0 | 0.00 | 0.00 | 0.00 | 42 | 1011.5 |
| 20260831020006 | 89 | 263 | 0.0 | 3.0 | 0.00 | 0.00 | 0.00 | 41 | 1011.3 |
| 20260831015504 | 90 | 263 | 0.0 | 3.0 | 0.00 | 0.00 | 0.00 | 41 | 1011.2 |
| 20260831015009 | 90 | 241 | 0.0 | 0.0 | 0.00 | 0.00 | 0.00 | 40 | 1011.1 |
| 20260831014507 | 91 | 241 | 0.0 | 2.0 | 0.00 | 0.00 | 0.00 | 40 | 1011.1 |
| 20260831014004 | 91 | 230 | 0.0 | 3.0 | 0.00 | 0.00 | 0.00 | 40 | 1011.0 |
| 20260831013508 | 91 | 253 | 0.0 | 3.0 | 0.00 | 0.00 | 0.00 | 39 | 1011.0 |
| 20260831013016 | 92 | 185 | 0.0 | 4.0 | 0.00 | 0.00 | 0.00 | 38 | 1010.9 |
| 20260831012508 | 92 | 244 | 1.0 | 4.0 | 0.00 | 0.00 | 0.00 | 38 | 1010.9 |